667  
ASUS41 KCLE 291812  
RWRCLE  
OHIO REGIONAL WEATHER ROUNDUP  
NATIONAL WEATHER SERVICE WILMINGTON, OH  
200 PM EDT MON MAY 29 2017  
 
NOTE: "FAIR" INDICATES FEW OR NO CLOUDS BELOW 12,000 FEET WITH NO  
SIGNIFICANT WEATHER AND/OR S TO VISIBILITY
.  
 
OHZ001>008-015>018-024>027-034-035-043-044-291900-  
NORTHWEST OHIO  
 
CITY SKY/WX TMP DP RH WIND PRES REMARKS
 
DEFIANCE FAIR 75 51 43 W9G20 29.86R  
FINDLAY FAIR 79 51 37 W20 29.86R  
TOLEDO EXPRESS FAIR 78 51 38 SW18 29.84R  
TOLEDO EXEC FAIR 79 52 38 W17G28 29.84R  
LIMA FAIR 77 53 43 SW20 29.88S  

 
 
OHZ009>014-019>023-028>033-038-089-291900-  
NORTHEAST OHIO  
 
CITY SKY/WX TMP DP RH WIND PRES REMARKS
 
CLE-HOPKINS PTSUNNY 78 53 41 S14G21 29.88S  
CLE-LAKEFRONT FAIR 74 52 46 W6G18 29.85F  
CUY CO. ARPT MOSUNNY 77 54 44 W12 29.88S  
LORAIN-ELYRIA PTSUNNY 76 53 44 SW18G25 29.87S  
ASHTABULA FAIR 75 44 33 W13G24 29.88F  
AKRON-CANTON PTSUNNY 75 50 41 SW13 29.91R  
WOOSTER PTSUNNY 76 50 40 SW18 29.91R  
MANSFIELD PTSUNNY 76 51 41 SW20G28 29.90S  
YOUNGSTOWN PTSUNNY 74 49 41 W13 29.90S  

 
 
OHZ042-051>053-060>062-070>072-077>081-291900-  
SOUTHWEST OHIO  
 
CITY SKY/WX TMP DP RH WIND PRES REMARKS
 
CINC-COVINGTON PTSUNNY 79 54 41 S16G22 29.95F  
CINC-LUNKEN PTSUNNY 80 61 52 SW16 29.94F  
HAMILTON FAIR 81 60 48 SW12 29.94S  
DAYTON PTSUNNY 76 51 41 W23G31 29.93R  
WRIGHT-PAT AFB PTSUNNY 78 53 42 SW21G26 29.91S  
DAYTON GENERAL PTSUNNY 77 51 40 SW13G21 29.93S  
WILMINGTON PTSUNNY 75 53 46 SW16G23 29.94S  

 
 
OHZ036-037-039>041-045>050-054>059-063>069-073>076-082>088-291900-  
CENTRAL AND SOUTHEAST OHIO  
 
CITY SKY/WX TMP DP RH WIND PRES REMARKS
 
COLUMBUS PTSUNNY 78 51 38 W13 29.91S  
OSU AIRPORT FAIR 79 54 41 SW18G26 29.92R  
BOLTON FIELD PTSUNNY 77 54 44 W15 29.94R  
RICKENBACK AFB FAIR 80 53 39 SW14G22 29.92S  
NEWARK FAIR 78 52 40 W10G20 29.92S  
MARION PTSUNNY 76 49 38 SW14G25 29.90S  
LANCASTER PTSUNNY 78 54 43 W12 29.93F  
ZANESVILLE PTSUNNY 79 53 40 W9 29.93F  
NEW PHILLY FAIR 79 51 37 SW9G16 29.93S  

 
 
 
CLICK HERE TO GO TO PREVIOUS BULLETINS.

The Nexlab OH Page
The Nexlab PA Page Main Text Page